Change the Weather History Date:

Saturday, November 17, 2012

  Actual Average Record
Temperature  
Mean Temperature 42 °F -  
Max Temperature 47 °F 41 °F 55 °F (2006)
Min Temperature 36 °F 36 °F 28 °F (1996)
Degree Days  
Heating Degree Days 24    
Moisture  
Dew Point 42 °F    
Average Humidity 92    
Maximum Humidity 100    
Minimum Humidity 66    
Precipitation  
Precipitation 0.00 in - - ()
Sea Level Pressure  
Sea Level Pressure 29.84 in    
Wind  
Wind Speed 6 mph ()    
Max Wind Speed 13 mph    
Max Gust Speed -    
Visibility 5.0 miles    
Events Rain    
Averages and records for this station are not official NWS values.
T = Trace of Precipitation, MM = Missing Value Source: Averaged Metar Reports

Daily Weather History Graph

Daily Weather History Graph

Search for Another Location

Airport or City:

Trip Planner

Search our weather history database for the weather conditions in past years. The results will help you decide how hot, cold, wet, or windy it might be!

Date:

Astronomy

Nov. 17, 2012 Rise Set
Actual Time 8:00 AM CET 4:51 PM CET
Civil Twilight 7:23 AM CET 5:27 PM CET
Nautical Twilight 6:43 AM CET 6:08 PM CET
Astronomical Twilight 6:04 AM CET 6:46 PM CET
Moon 11:34 AM CET (11/17) 8:42 PM CET (11/17)
Length of Visible Light 10h 04m
Length of Day
8h 51m
Waxing Crescent, 18% of the Moon is Illuminated
Nov 17
Waxing Crescent
Nov 20
First Quarter
Nov 28
Full
Dec 6
Last Quarter
Dec 13
New

Hourly Weather History & Observations

Time (CET) Temp. Windchill Dew Point Humidity Pressure Visibility Wind Dir Wind Speed Gust Speed Precip Events Conditions
12:03 AM 39.2 °F 35.0 °F 33.8 °F 81% 29.92 in 5.0 mi South 5.8 mph - N/A   Clear
12:25 AM 39.2 °F - 33.8 °F 81% 29.92 in 5.0 mi Variable 2.3 mph - N/A   Clear
1:00 AM 40 °F - 34 °F 73% 29.93 in 6 mi SSE 6.7 mph - -  
1:25 AM 41.0 °F 38.0 °F 33.8 °F 76% 29.89 in 6.2 mi SSE 4.6 mph - N/A   Clear
2:25 AM 39.2 °F 37.0 °F 35.6 °F 87% 29.89 in 6.2 mi Variable 3.5 mph - N/A   Clear
3:25 AM 41.0 °F 39.0 °F 33.8 °F 76% 29.86 in 6.2 mi Variable 3.5 mph - N/A   Clear
4:00 AM 41 °F - 33 °F 66% 29.87 in 16 mi Calm Calm - -  
4:25 AM 41.0 °F 39.0 °F 32.0 °F 70% 29.83 in 6.2 mi Variable 3.5 mph - N/A   Clear
5:25 AM 39.2 °F 35.0 °F 32.0 °F 75% 29.83 in 6.2 mi SW 5.8 mph - N/A   Clear
6:25 AM 39.2 °F 35.0 °F 33.8 °F 81% 29.83 in 6.2 mi SSW 5.8 mph - N/A   Clear
7:00 AM 38 °F - 35 °F 82% 29.86 in 9 mi South 6.7 mph - -   Scattered Clouds
7:25 AM 37.4 °F 31.4 °F 35.6 °F 93% 29.83 in 6.2 mi South 8.1 mph - N/A   Clear
8:25 AM 39.2 °F 32.5 °F 37.4 °F 93% 29.83 in 5.6 mi SSW 10.4 mph - N/A   Partly Cloudy
8:28 AM 39.2 °F 32.0 °F 37.4 °F 93% 29.83 in 5.6 mi SSW 11.5 mph - N/A   Scattered Clouds
9:19 AM 41.0 °F 34.3 °F 39.2 °F 93% 29.83 in 5.6 mi South 11.5 mph - N/A   Overcast
9:25 AM 41.0 °F 33.9 °F 39.2 °F 93% 29.83 in 5.6 mi South 12.7 mph - N/A   Overcast
9:54 AM 42.8 °F 37.0 °F 39.2 °F 87% 29.83 in 6.2 mi South 10.4 mph - N/A   Overcast
10:00 AM 42 °F - 40 °F 88% 29.86 in 6 mi South 11.2 mph - -   Overcast
10:25 AM 42.8 °F 37.0 °F 41.0 °F 93% 29.83 in 6.2 mi South 10.4 mph - N/A   Overcast
11:04 AM 44.6 °F 40.7 °F 42.8 °F 93% 29.83 in 6.2 mi SSW 6.9 mph - N/A   Overcast
11:14 AM 44.6 °F 39.7 °F 42.8 °F 93% 29.83 in 6.2 mi SSW 9.2 mph - N/A   Overcast
11:25 AM 44.6 °F 39.2 °F 42.8 °F 93% 29.83 in 6.2 mi South 10.4 mph - N/A   Overcast
11:28 AM 44.6 °F 38.8 °F 42.8 °F 93% 29.83 in 6.2 mi South 11.5 mph - N/A   Overcast
11:59 AM 44.6 °F 40.2 °F 42.8 °F 93% 29.83 in 6.2 mi South 8.1 mph - N/A   Overcast
12:25 PM 46.4 °F 41.9 °F 42.8 °F 87% 29.83 in 6.2 mi SSW 9.2 mph - N/A   Overcast
1:00 PM 46 °F - 43 °F 87% 29.85 in 7 mi SSW 8.9 mph - -   Mostly Cloudy
1:25 PM 46.4 °F 41.1 °F 42.8 °F 87% 29.83 in 6.2 mi SSW 11.5 mph - N/A   Overcast
1:39 PM 46.4 °F 41.9 °F 44.6 °F 93% 29.83 in 5.0 mi SSW 9.2 mph - N/A   Mostly Cloudy
1:45 PM 46.4 °F 41.5 °F 44.6 °F 93% 29.83 in 4.3 mi SW 10.4 mph - N/A   Mostly Cloudy
2:25 PM 46.4 °F 41.9 °F 44.6 °F 93% 29.83 in 3.1 mi SSW 9.2 mph - N/A   Overcast
3:25 PM 44.6 °F 40.7 °F 44.6 °F 100% 29.83 in 1.2 mi SSW 6.9 mph - N/A   Overcast
3:28 PM 44.6 °F 41.4 °F 44.6 °F 100% 29.83 in 1.2 mi South 5.8 mph - N/A   Overcast
4:00 PM 45 °F - 45 °F 100% 29.84 in 1 mi South 4.5 mph - -   Mist
4:04 PM 44.6 °F 40.7 °F 44.6 °F 100% 29.83 in 1.2 mi South 6.9 mph - N/A   Overcast
4:14 PM 44.6 °F 40.7 °F 44.6 °F 100% 29.83 in 1.2 mi South 6.9 mph - N/A   Overcast
4:25 PM 44.6 °F 40.7 °F 44.6 °F 100% 29.83 in 1.2 mi South 6.9 mph - N/A   Overcast
4:59 PM 44.6 °F 40.2 °F 44.6 °F 100% 29.80 in - South 8.1 mph - N/A   Mostly Cloudy
5:25 PM 46.4 °F 42.4 °F 44.6 °F 93% 29.83 in 3.7 mi South 8.1 mph - N/A   Overcast
6:25 PM 46.4 °F 41.9 °F 44.6 °F 93% 29.80 in 4.3 mi South 9.2 mph - N/A   Overcast
7:00 PM 46 °F - 45 °F 96% 29.84 in 3 mi South 11.2 mph - -   Mist
7:25 PM 46.4 °F 42.4 °F 44.6 °F 93% 29.83 in 3.7 mi South 8.1 mph - N/A   Overcast
8:25 PM 46.4 °F 44.3 °F 46.4 °F 100% 29.83 in 6.2 mi South 4.6 mph - N/A   Overcast
8:49 PM 46.4 °F 42.9 °F 46.4 °F 100% 29.83 in 4.3 mi SSW 6.9 mph - N/A   Overcast
8:55 PM 46.4 °F 42.9 °F 46.4 °F 100% 29.83 in 4.3 mi South 6.9 mph - N/A   Overcast
9:04 PM 46.4 °F 42.9 °F 46.4 °F 100% 29.83 in 4.3 mi South 6.9 mph - N/A   Overcast
9:25 PM 46.4 °F 42.9 °F 46.4 °F 100% 29.83 in 3.1 mi South 6.9 mph - N/A   Overcast
10:00 PM 47 °F - 46 °F 95% 29.85 in 3 mi 4.5 mph - -   Partly Cloudy
10:25 PM 46.4 °F 42.9 °F 46.4 °F 100% 29.83 in 3.7 mi SSW 6.9 mph - N/A   Overcast
10:29 PM 46.4 °F 43.5 °F 46.4 °F 100% 29.83 in 3.7 mi SSW 5.8 mph - N/A   Overcast
10:54 PM 46.4 °F 43.5 °F 46.4 °F 100% 29.83 in 3.1 mi SSW 5.8 mph - N/A   Mostly Cloudy
11:25 PM 46.4 °F 43.5 °F 46.4 °F 100% 29.83 in - SSW 5.8 mph - N/A Rain Light Rain Showers
11:34 PM 46.4 °F 43.5 °F 46.4 °F 100% 29.83 in - SSW 5.8 mph - N/A Rain Light Rain Showers
11:40 PM 46.4 °F 43.5 °F 46.4 °F 100% 29.83 in - SSW 5.8 mph - N/A Rain Light Rain Showers
11:46 PM 46.4 °F 43.5 °F 46.4 °F 100% 29.83 in - SSW 5.8 mph - N/A Rain Light Rain Showers